Weather History for Michigan City, IN

Change the Weather History Date:

Friday, November 15, 2013

  Actual Average (KVPZ) Record (KVPZ)
Temperature  
Mean Temperature 42 °F 41 °F  
Max Temperature 46 °F 49 °F 67 °F (2001)
Min Temperature 37 °F 33 °F 23 °F (2012)
Degree Days  
Heating Degree Days 24 24  
Month to date heating degree days 311  
Since 1 July heating degree days 841  
Cooling Degree Days 0 0  
Month to date cooling degree days 0  
Year to date cooling degree days 713  
Moisture  
Dew Point 29 °F    
Average Humidity 58    
Maximum Humidity 66    
Minimum Humidity 49    
Precipitation  
Precipitation 0.00 in 0.11 in 0.29 in (2005)
Month to date precipitation 1.82  
Year to date precipitation 33.82  
Sea Level Pressure  
Sea Level Pressure 30.00 in    
Wind  
Wind Speed 9 mph (SSW)    
Max Wind Speed 15 mph    
Max Gust Speed 20 mph    
Visibility 10 miles    
Events      
T = Trace of Precipitation, MM = Missing Value Source: NWS Daily Summary

Daily Weather History Graph

Daily Weather History Graph

Search for Another Location

Airport:

Trip Planner

Search our weather history database for the weather conditions in past years. The results will help you decide how hot, cold, wet, or windy it might be!

Date:

Astronomy

Nov. 15, 2013 Rise Set
Actual Time 6:36 AM CST 4:26 PM CST
Civil Twilight 6:06 AM CST 4:56 PM CST
Nautical Twilight 5:33 AM CST 5:30 PM CST
Astronomical Twilight 5:00 AM CST 6:03 PM CST
Moon 3:24 PM CST (11/15) 4:31 AM CST (11/15)
Length of Visible Light 10h 49m
Length of Day
9h 49m
Waxing Gibbous, 96% of the Moon is Illuminated
Nov 15
Waxing Gibbous
Nov 17
Full
Nov 25
Last Quarter
Dec 2
New
Dec 9
First Quarter

Hourly Weather History & Observations

Time (CST) Temp. Windchill Dew Point Humidity Pressure Visibility Wind Dir Wind Speed Gust Speed Precip Events Conditions
12:15 AM 39.2 °F 33.0 °F 23.0 °F 52% 30.01 in 10.0 mi SSW 9.2 mph - N/A   Clear
12:55 AM 41.0 °F 34.3 °F 24.8 °F 53% 30.00 in 10.0 mi SSW 11.5 mph 16.1 mph N/A   Clear
1:15 AM 41.0 °F 35.8 °F 24.8 °F 53% 30.00 in 10.0 mi SSW 8.1 mph - N/A   Clear
1:35 AM 41.0 °F 35.2 °F 24.8 °F 53% 30.00 in 10.0 mi SSW 9.2 mph 18.4 mph N/A   Clear
1:55 AM 41.0 °F 34.7 °F 24.8 °F 53% 30.00 in 10.0 mi SSW 10.4 mph - N/A   Clear
2:15 AM 41.0 °F 34.7 °F 24.8 °F 53% 30.00 in 10.0 mi SSW 10.4 mph - N/A   Clear
2:35 AM 41.0 °F 35.2 °F 26.6 °F 57% 30.00 in 10.0 mi SSW 9.2 mph - N/A   Clear
2:55 AM 39.2 °F 32.5 °F 24.8 °F 56% 29.99 in 10.0 mi SSW 10.4 mph - N/A   Clear
3:15 AM 37.4 °F 30.8 °F 26.6 °F 65% 29.99 in 10.0 mi South 9.2 mph - N/A   Clear
3:35 AM 37.4 °F 31.4 °F 26.6 °F 65% 29.99 in 10.0 mi SSW 8.1 mph - N/A   Clear
3:55 AM 37.4 °F 30.8 °F 26.6 °F 65% 29.99 in 10.0 mi South 9.2 mph - N/A   Clear
4:15 AM 37.4 °F 30.8 °F 26.6 °F 65% 29.99 in 10.0 mi SSW 9.2 mph - N/A   Clear
4:35 AM 37.4 °F 31.4 °F 26.6 °F 65% 30.00 in 10.0 mi SSW 8.1 mph - N/A   Clear
4:55 AM 37.4 °F 30.3 °F 26.6 °F 65% 29.99 in 10.0 mi SSW 10.4 mph 16.1 mph N/A   Clear
5:15 AM 37.4 °F 30.8 °F 26.6 °F 65% 29.99 in 10.0 mi South 9.2 mph - N/A   Clear
5:35 AM 37.4 °F 30.8 °F 26.6 °F 65% 29.99 in 10.0 mi South 9.2 mph - N/A   Clear
5:55 AM 37.4 °F 30.3 °F 26.6 °F 65% 29.99 in 10.0 mi SSW 10.4 mph - N/A   Clear
6:15 AM 37.4 °F 30.8 °F 26.6 °F 65% 30.00 in 10.0 mi SSW 9.2 mph - N/A   Clear
6:35 AM 37.4 °F 30.8 °F 26.6 °F 65% 30.01 in 10.0 mi SSW 9.2 mph 16.1 mph N/A   Clear
6:55 AM 37.4 °F 30.8 °F 26.6 °F 65% 30.01 in 10.0 mi SSW 9.2 mph - N/A   Clear
7:15 AM 37.4 °F 30.8 °F 26.6 °F 65% 30.02 in 10.0 mi SSW 9.2 mph - N/A   Clear
7:35 AM 37.4 °F 31.4 °F 26.6 °F 65% 30.02 in 10.0 mi SSW 8.1 mph - N/A   Clear
7:55 AM 41.0 °F 34.7 °F 26.6 °F 57% 30.03 in 10.0 mi SSW 10.4 mph - N/A   Clear
8:15 AM 41.0 °F 34.7 °F 26.6 °F 57% 30.02 in 10.0 mi SSW 10.4 mph - N/A   Clear
8:35 AM 42.8 °F 37.5 °F 26.6 °F 53% 30.02 in 10.0 mi SSW 9.2 mph - N/A   Clear
8:55 AM 44.6 °F 39.2 °F 26.6 °F 49% 30.02 in 10.0 mi SSW 10.4 mph - N/A   Clear
9:15 AM 44.6 °F 39.2 °F 26.6 °F 49% 30.02 in 10.0 mi SSW 10.4 mph - N/A   Clear
9:35 AM 44.6 °F 39.2 °F 26.6 °F 49% 30.02 in 10.0 mi South 10.4 mph - N/A   Mostly Cloudy
9:55 AM 44.6 °F 39.7 °F 28.4 °F 53% 30.02 in 10.0 mi SSW 9.2 mph - N/A   Overcast
10:15 AM 42.8 °F 38.0 °F 28.4 °F 57% 30.01 in 10.0 mi South 8.1 mph - N/A   Overcast
10:35 AM 42.8 °F 39.3 °F 28.4 °F 57% 30.02 in 10.0 mi SSW 5.8 mph - N/A   Overcast
10:55 AM 42.8 °F 37.5 °F 28.4 °F 57% 30.01 in 10.0 mi SSW 9.2 mph - N/A   Overcast
11:15 AM 44.6 °F 39.2 °F 28.4 °F 53% 30.01 in 10.0 mi South 10.4 mph - N/A   Overcast
11:35 AM 44.6 °F 38.8 °F 28.4 °F 53% 30.00 in 10.0 mi South 11.5 mph - N/A   Overcast
11:55 AM 44.6 °F 38.4 °F 28.4 °F 53% 29.99 in 10.0 mi South 12.7 mph 18.4 mph N/A   Overcast
12:15 PM 44.6 °F 39.2 °F 28.4 °F 53% 29.99 in 10.0 mi SSW 10.4 mph 18.4 mph N/A   Overcast
12:35 PM 46.4 °F 41.9 °F 30.2 °F 53% 29.98 in 10.0 mi SSW 9.2 mph - N/A   Overcast
12:55 PM 46.4 °F 40.1 °F 28.4 °F 50% 29.98 in 10.0 mi SSW 15.0 mph 19.6 mph N/A   Overcast
1:15 PM 46.4 °F 41.9 °F 30.2 °F 53% 29.98 in 10.0 mi SSW 9.2 mph 17.3 mph N/A   Overcast
1:35 PM 46.4 °F 41.5 °F 30.2 °F 53% 29.98 in 10.0 mi SSW 10.4 mph 19.6 mph N/A   Overcast
1:55 PM 46.4 °F 41.1 °F 30.2 °F 53% 29.98 in 10.0 mi SSW 11.5 mph 17.3 mph N/A   Overcast
2:15 PM 46.4 °F 41.1 °F 30.2 °F 53% 29.98 in 10.0 mi SSW 11.5 mph - N/A   Overcast
2:35 PM 46.4 °F 41.9 °F 30.2 °F 53% 29.97 in 10.0 mi SSW 9.2 mph - N/A   Overcast
2:55 PM 46.4 °F 42.4 °F 32.0 °F 57% 29.98 in 10.0 mi SW 8.1 mph - N/A   Overcast
3:15 PM 46.4 °F 41.1 °F 32.0 °F 57% 29.98 in 10.0 mi SW 11.5 mph - N/A   Overcast
3:35 PM 46.4 °F 42.4 °F 32.0 °F 57% 29.98 in 10.0 mi SSW 8.1 mph - N/A   Overcast
3:55 PM 46.4 °F 42.4 °F 32.0 °F 57% 29.98 in 10.0 mi SSW 8.1 mph - N/A   Overcast
4:15 PM 46.4 °F 41.9 °F 32.0 °F 57% 29.99 in 10.0 mi SSW 9.2 mph - N/A   Overcast
4:35 PM 46.4 °F 42.9 °F 32.0 °F 57% 29.99 in 10.0 mi SSW 6.9 mph - N/A   Overcast
4:55 PM 44.6 °F 41.4 °F 32.0 °F 61% 29.99 in 10.0 mi SSW 5.8 mph - N/A   Overcast
5:15 PM 44.6 °F 41.4 °F 32.0 °F 61% 30.00 in 10.0 mi SSW 5.8 mph - N/A   Overcast
5:35 PM 44.6 °F 42.2 °F 32.0 °F 61% 30.00 in 10.0 mi SSW 4.6 mph - N/A   Overcast
5:55 PM 46.4 °F 45.2 °F 32.0 °F 57% 30.00 in 10.0 mi South 3.5 mph - N/A   Overcast
6:15 PM 44.6 °F 41.4 °F 32.0 °F 61% 30.01 in 10.0 mi SSW 5.8 mph - N/A   Overcast
6:35 PM 46.4 °F 43.5 °F 32.0 °F 57% 30.01 in 10.0 mi SSW 5.8 mph - N/A   Overcast
6:55 PM 46.4 °F 42.9 °F 32.0 °F 57% 30.01 in 10.0 mi South 6.9 mph - N/A   Overcast
7:15 PM 46.4 °F 42.4 °F 32.0 °F 57% 30.00 in 10.0 mi South 8.1 mph - N/A   Overcast
7:35 PM 46.4 °F 41.9 °F 32.0 °F 57% 30.01 in 10.0 mi South 9.2 mph - N/A   Overcast
7:55 PM 44.6 °F 39.7 °F 32.0 °F 61% 30.00 in 10.0 mi South 9.2 mph - N/A   Scattered Clouds
8:15 PM 44.6 °F 40.7 °F 32.0 °F 61% 30.00 in 10.0 mi South 6.9 mph - N/A   Clear
8:35 PM 44.6 °F 40.7 °F 32.0 °F 61% 30.01 in 10.0 mi South 6.9 mph - N/A   Clear
8:55 PM 42.8 °F 38.6 °F 32.0 °F 66% 30.00 in 10.0 mi South 6.9 mph - N/A   Clear
9:15 PM 42.8 °F 38.6 °F 32.0 °F 66% 30.01 in 10.0 mi South 6.9 mph - N/A   Clear
9:35 PM 42.8 °F 38.6 °F 30.2 °F 61% 30.01 in 10.0 mi South 6.9 mph - N/A   Clear
9:55 PM 42.8 °F 37.5 °F 30.2 °F 61% 30.00 in 10.0 mi South 9.2 mph - N/A   Clear
10:15 PM 42.8 °F 38.6 °F 30.2 °F 61% 29.99 in 10.0 mi South 6.9 mph - N/A   Clear
10:35 PM 42.8 °F 38.6 °F 30.2 °F 61% 29.99 in 10.0 mi South 6.9 mph - N/A   Clear
10:55 PM 42.8 °F 40.1 °F 30.2 °F 61% 30.00 in 10.0 mi South 4.6 mph - N/A   Clear
11:15 PM 41.0 °F 36.4 °F 30.2 °F 65% 29.99 in 10.0 mi South 6.9 mph - N/A   Clear
11:35 PM 41.0 °F 37.1 °F 30.2 °F 65% 29.98 in 10.0 mi SSE 5.8 mph - N/A   Clear
11:55 PM 42.8 °F 38.6 °F 32.0 °F 66% 29.97 in 10.0 mi SSE 6.9 mph - N/A   Clear